Regional Weather Roundup
Issued by NWS

Home | Current Version | Previous Version | Graphics & Text | Print | Product List | Glossary Off
Versions: 1 2 3 4 5 6 7 8 9 10 11 12 13 14 15 16 17 18 19 20 21 22 23 24 25 26 27 28 29 30 31 32 33 34 35 36 37 38 39 40 41 42 43 44 45 46 47 48 49 50

000
ASUS43 KTOP 282308
RWRKS

WEATHER ROUNDUP FOR KANSAS
NATIONAL WEATHER SERVICE GOODLAND KS
600 PM CDT THU APR 28 2016

NOTE:  "FAIR" INDICATES FEW OR NO CLOUDS BELOW 12,000 FEET WITH NO
SIGNIFICANT WEATHER AND/OR OBSTRUCTIONS TO VISIBILITY.

KSZ001>006-013>018-027>032-041>047-290000-
NORTHWEST KANSAS

CITY           SKY/WX    TMP DP  RH WIND       PRES   REMARKS
GOODLAND       CLOUDY    50  35  56 E5        29.99R
HAYS           CLOUDY    57  37  47 NE8       29.98R
HILL CITY      MOSUNNY   57  40  52 NE7       30.00R
RUSSELL        CLOUDY    60  43  53 N10       29.96R
$$

KSZ061>065-074>080-084>089-290000-
SOUTHWEST KANSAS

CITY           SKY/WX    TMP DP  RH WIND       PRES   REMARKS
DODGE CITY     SUNNY     60  36  40 E8        29.95F
ELKHART          N/A     62  38  41 E15         N/A
GARDEN CITY    SUNNY     58  36  43 E8        29.95S
GREAT BEND     SUNNY     61  41  48 E9        29.96S
LIBERAL        CLOUDY    63  37  39 E13       29.91S
PRATT          SUNNY     62  37  39 NE9       29.94S
$$

KSZ066>073-081>083-090>101-290000-
SOUTHEAST KANSAS

CITY           SKY/WX    TMP DP  RH WIND       PRES   REMARKS
CHANUTE        SUNNY     68  48  48 N5        29.97R
COFFEYVILLE    SUNNY     70  49  47 E7        29.96S
HUTCHINSON     PTSUNNY   65  44  46 NE13      29.95F
MEDICINE LODGE   N/A     66  43  43 E8        29.93R
NEWTON         PTSUNNY   63  45  51 E7        29.98S
PARSONS        SUNNY     68  49  50 CALM      29.97S
WICHITA INTL   PTSUNNY   68  47  46 NE10      29.93F
WICHITA JABRA  PTSUNNY   65  47  52 NE10      29.94F
WICHITA MCCONL SUNNY     67  47  49 NE10      29.94F
WINFIELD       SUNNY     69  45  41 E10       29.93F
$$

KSZ007>012-019>026-033>040-048>060-102>105-290000-
NORTHEAST KANSAS

CITY           SKY/WX    TMP DP  RH WIND       PRES   REMARKS
CONCORDIA      MOSUNNY   56  44  64 N12       29.99S
EMPORIA        PTSUNNY   63  46  54 N8        29.97S
LAWRENCE       MOSUNNY   59  46  62 N8        29.99S
MANHATTAN      SUNNY     60  44  55 NE9       29.99S
MARYSVILLE     CLOUDY    54  45  71 N8        30.00S
OLATHE IND     MOSUNNY   61  47  59 NW7       29.99S
OLATHE EXE     MOSUNNY   61  47  59 NW8       29.98S
SALINA         CLOUDY    62  45  53 N12       29.97F
TOPEKA BILLARD MOSUNNY   61  46  57 N7        29.99S
TOPEKA FORBES  SUNNY     62  47  57 NW10      29.99R
$$




USA.gov is the U.S. government's official web portal to all federal, state and local government web resources and services.